EAG5504 SBGR-SBPA

Flight info

Callsign EAG5504
Flight time 1h 12m
Altitude 36000
Route UBSOD UZ38 VUKMO
Aircraft B738/M-SDE2E3FGHIRWXY/LB1

Departure

Time 2026-05-09 01:04
Airport São Paulo/Guarulhos–Governor André Franco Montoro International Airport (SBGR)

Arrival

Time 2026-05-09 02:17
Airport Porto Alegre-Salgado Filho International Airport (SBPA)
Time Latitude Longitude Altitude Speed Heading
2026-05-09 00:50 -23.42721 -46.48229 2468 ft 0 kts 264°
2026-05-09 00:56 -23.42721 -46.48226 2467 ft 3 kts 265°
2026-05-09 00:56 -23.42720 -46.48197 2467 ft 4 kts 271°
2026-05-09 00:56 -23.42721 -46.48179 2467 ft 4 kts 202°
2026-05-09 00:57 -23.42742 -46.48176 2467 ft 1 kts 175°
2026-05-09 00:57 -23.42741 -46.48176 2467 ft 0 kts 175°
2026-05-09 00:58 -23.42766 -46.48174 2467 ft 10 kts 175°
2026-05-09 00:59 -23.42873 -46.48163 2467 ft 17 kts 172°
2026-05-09 00:59 -23.42984 -46.48132 2467 ft 16 kts 161°
2026-05-09 00:59 -23.43092 -46.48117 2467 ft 15 kts 180°
2026-05-09 00:59 -23.43145 -46.48201 2467 ft 15 kts 256°
2026-05-09 01:00 -23.43175 -46.48319 2467 ft 16 kts 253°
2026-05-09 01:00 -23.43252 -46.48377 2467 ft 16 kts 161°
2026-05-09 01:00 -23.43314 -46.48357 2467 ft 1 kts 165°
2026-05-09 01:00 -23.43315 -46.48357 2467 ft 0 kts 165°
2026-05-09 01:01 -23.43343 -46.48349 2467 ft 9 kts 165°
2026-05-09 01:01 -23.43402 -46.48324 2467 ft 9 kts 133°
2026-05-09 01:01 -23.43406 -46.48259 2467 ft 9 kts 72°
2026-05-09 01:01 -23.43389 -46.48194 2467 ft 8 kts 74°
2026-05-09 01:02 -23.43377 -46.48147 2467 ft 5 kts 74°
2026-05-09 01:02 -23.43373 -46.48131 2467 ft 1 kts 74°
2026-05-09 01:02 -23.43371 -46.48126 2467 ft 1 kts 74°
2026-05-09 01:02 -23.43370 -46.48120 2467 ft 1 kts 74°
2026-05-09 01:03 -23.43351 -46.48053 2467 ft 29 kts 73°
2026-05-09 01:03 -23.43230 -46.47608 2467 ft 93 kts 74°
2026-05-09 01:03 -23.42994 -46.46729 2467 ft 148 kts 73°
2026-05-09 01:03 -23.42666 -46.45473 2516 ft 193 kts 71°
2026-05-09 01:04 -23.42279 -46.43980 2917 ft 216 kts 73°
2026-05-09 01:04 -23.41873 -46.42489 4117 ft 192 kts 70°
2026-05-09 01:04 -23.41459 -46.41156 5121 ft 187 kts 69°
2026-05-09 01:04 -23.41034 -46.39736 5544 ft 209 kts 68°
2026-05-09 01:05 -23.40552 -46.38147 5859 ft 233 kts 67°
2026-05-09 01:05 -23.40227 -46.36306 6149 ft 264 kts 84°
2026-05-09 01:05 -23.41386 -46.32227 7100 ft 307 kts 125°
2026-05-09 01:06 -23.42989 -46.30656 7752 ft 315 kts 148°
2026-05-09 01:06 -23.44999 -46.29809 8523 ft 313 kts 171°
2026-05-09 01:06 -23.47157 -46.29791 9268 ft 310 kts 194°
2026-05-09 01:06 -23.49150 -46.30612 9985 ft 305 kts 216°
2026-05-09 01:07 -23.50773 -46.32072 10707 ft 303 kts 231°
2026-05-09 01:07 -23.52267 -46.33746 11237 ft 317 kts 229°
2026-05-09 01:07 -23.53893 -46.35490 11559 ft 336 kts 229°
2026-05-09 01:07 -23.55600 -46.37325 11849 ft 354 kts 229°
2026-05-09 01:08 -23.57372 -46.39238 12176 ft 370 kts 229°
2026-05-09 01:08 -23.59234 -46.41251 12597 ft 382 kts 229°
2026-05-09 01:08 -23.61146 -46.43325 13126 ft 389 kts 229°
2026-05-09 01:08 -23.63070 -46.45414 13770 ft 392 kts 229°
2026-05-09 01:09 -23.65012 -46.47525 14385 ft 395 kts 229°
2026-05-09 01:09 -23.66966 -46.49652 14983 ft 399 kts 229°
2026-05-09 01:09 -23.68935 -46.51796 15565 ft 402 kts 229°
2026-05-09 01:09 -23.70916 -46.53954 16174 ft 403 kts 229°
2026-05-09 01:10 -23.72898 -46.56121 16831 ft 404 kts 229°
2026-05-09 01:10 -23.74901 -46.58290 17523 ft 405 kts 228°
2026-05-09 01:10 -23.76911 -46.60467 18084 ft 408 kts 229°
2026-05-09 01:10 -23.78912 -46.62638 18643 ft 411 kts 229°
2026-05-09 01:11 -23.80946 -46.64850 19168 ft 414 kts 229°
2026-05-09 01:11 -23.83004 -46.67090 19590 ft 418 kts 229°
2026-05-09 01:11 -23.85071 -46.69344 20065 ft 420 kts 229°
2026-05-09 01:11 -23.87148 -46.71611 20532 ft 422 kts 229°
2026-05-09 01:12 -23.88523 -46.73113 20826 ft 424 kts 229°
2026-05-09 01:12 -23.90617 -46.75400 21254 ft 426 kts 229°
2026-05-09 01:12 -23.92714 -46.77692 21699 ft 427 kts 229°
2026-05-09 01:12 -23.94823 -46.79999 22056 ft 430 kts 229°
2026-05-09 01:13 -23.96940 -46.82315 22414 ft 432 kts 229°
2026-05-09 01:13 -23.99069 -46.84646 22773 ft 434 kts 229°
2026-05-09 01:13 -24.01214 -46.86995 23090 ft 437 kts 230°
2026-05-09 01:13 -24.03341 -46.89324 23357 ft 440 kts 230°
2026-05-09 01:14 -24.05543 -46.91724 23656 ft 441 kts 230°
2026-05-09 01:14 -24.07684 -46.94067 23945 ft 443 kts 230°
2026-05-09 01:14 -24.09866 -46.96462 24275 ft 444 kts 230°
2026-05-09 01:14 -24.12049 -46.98863 24580 ft 445 kts 230°
2026-05-09 01:15 -24.14244 -47.01277 24879 ft 447 kts 230°
2026-05-09 01:15 -24.16440 -47.03695 25159 ft 449 kts 230°
2026-05-09 01:15 -24.18647 -47.06125 25430 ft 450 kts 230°
2026-05-09 01:15 -24.20837 -47.08539 25694 ft 452 kts 230°
2026-05-09 01:16 -24.23064 -47.10992 25954 ft 454 kts 230°
2026-05-09 01:16 -24.25369 -47.13372 26183 ft 459 kts 226°
2026-05-09 01:16 -24.27885 -47.15545 26444 ft 463 kts 221°
2026-05-09 01:17 -24.33337 -47.19455 26921 ft 469 kts 217°
2026-05-09 01:17 -24.36103 -47.21353 27145 ft 471 kts 217°
2026-05-09 01:17 -24.38881 -47.23270 27369 ft 472 kts 217°
2026-05-09 01:17 -24.41658 -47.25194 27600 ft 473 kts 217°
2026-05-09 01:18 -24.44440 -47.27126 27835 ft 474 kts 217°
2026-05-09 01:18 -24.47227 -47.29066 28062 ft 475 kts 217°
2026-05-09 01:18 -24.50023 -47.31014 28276 ft 476 kts 217°
2026-05-09 01:18 -24.52788 -47.32943 28482 ft 477 kts 217°
2026-05-09 01:19 -24.55595 -47.34900 28673 ft 478 kts 217°
2026-05-09 01:19 -24.58408 -47.36850 28854 ft 480 kts 217°
2026-05-09 01:19 -24.61242 -47.38820 29041 ft 480 kts 217°
2026-05-09 01:19 -24.64058 -47.40783 29379 ft 478 kts 217°
2026-05-09 01:20 -24.66848 -47.42729 29769 ft 475 kts 217°
2026-05-09 01:20 -24.69651 -47.44687 30096 ft 473 kts 217°
2026-05-09 01:20 -24.72422 -47.46624 30433 ft 472 kts 217°
2026-05-09 01:20 -24.75181 -47.48555 30793 ft 470 kts 217°
2026-05-09 01:21 -24.77940 -47.50486 31121 ft 469 kts 217°
2026-05-09 01:21 -24.80688 -47.52411 31465 ft 467 kts 217°
2026-05-09 01:21 -24.83430 -47.54332 31800 ft 466 kts 217°
2026-05-09 01:21 -24.86119 -47.56218 32125 ft 464 kts 217°
2026-05-09 01:22 -24.88847 -47.58131 32432 ft 464 kts 217°
2026-05-09 01:22 -24.91569 -47.60042 32667 ft 464 kts 217°
2026-05-09 01:22 -24.94283 -47.61948 32970 ft 462 kts 217°
2026-05-09 01:22 -24.96991 -47.63852 33285 ft 461 kts 217°
2026-05-09 01:23 -24.99695 -47.65753 33581 ft 459 kts 217°
2026-05-09 01:23 -25.02380 -47.67642 33875 ft 458 kts 217°
2026-05-09 01:23 -25.05066 -47.69524 34170 ft 457 kts 217°
2026-05-09 01:23 -25.07755 -47.71412 34405 ft 457 kts 217°
2026-05-09 01:24 -25.10442 -47.73304 34554 ft 460 kts 218°
2026-05-09 01:24 -25.13153 -47.75217 34609 ft 464 kts 218°
2026-05-09 01:24 -25.15835 -47.77111 34832 ft 464 kts 218°
2026-05-09 01:24 -25.18585 -47.79055 35078 ft 463 kts 218°
2026-05-09 01:25 -25.21300 -47.80976 35279 ft 464 kts 218°
2026-05-09 01:25 -25.23990 -47.82879 35478 ft 465 kts 218°
2026-05-09 01:25 -25.26711 -47.84804 35711 ft 464 kts 218°
2026-05-09 01:25 -25.29439 -47.86733 35852 ft 466 kts 218°
2026-05-09 01:26 -25.32173 -47.88672 36015 ft 467 kts 218°
2026-05-09 01:26 -25.34923 -47.90619 36016 ft 468 kts 218°
2026-05-09 01:26 -25.40406 -47.94490 36028 ft 466 kts 218°
2026-05-09 01:27 -25.45865 -47.98366 36030 ft 466 kts 218°
2026-05-09 01:27 -25.51324 -48.02251 36030 ft 466 kts 218°
2026-05-09 01:28 -25.56754 -48.06120 36030 ft 466 kts 218°
2026-05-09 01:28 -25.62216 -48.10012 36029 ft 466 kts 218°
2026-05-09 01:29 -25.67678 -48.13899 36029 ft 466 kts 218°
2026-05-09 01:29 -25.73137 -48.17788 36030 ft 466 kts 218°
2026-05-09 01:30 -25.78591 -48.21679 36030 ft 466 kts 218°
2026-05-09 01:30 -25.84011 -48.25552 36030 ft 466 kts 218°
2026-05-09 01:31 -25.89461 -48.29450 36030 ft 466 kts 218°
2026-05-09 01:31 -25.94924 -48.33343 36030 ft 466 kts 218°
2026-05-09 01:32 -26.00382 -48.37239 36030 ft 466 kts 218°
2026-05-09 01:32 -26.05848 -48.41139 36030 ft 466 kts 218°
2026-05-09 01:33 -26.11276 -48.45036 36031 ft 466 kts 218°
2026-05-09 01:33 -26.16740 -48.48966 36031 ft 467 kts 218°
2026-05-09 01:34 -26.22194 -48.52893 36031 ft 467 kts 218°
2026-05-09 01:34 -26.27655 -48.56828 36031 ft 467 kts 218°
2026-05-09 01:35 -26.33122 -48.60761 36031 ft 467 kts 218°
2026-05-09 01:35 -26.38562 -48.64693 36030 ft 467 kts 219°
2026-05-09 01:36 -26.43990 -48.68619 35978 ft 466 kts 219°
2026-05-09 01:36 -26.49407 -48.72564 35953 ft 465 kts 219°
2026-05-09 01:37 -26.54819 -48.76552 35943 ft 465 kts 220°
2026-05-09 01:37 -26.60228 -48.80547 35945 ft 465 kts 220°
2026-05-09 01:38 -26.65595 -48.84512 35946 ft 465 kts 220°
2026-05-09 01:38 -26.71017 -48.88487 35950 ft 466 kts 219°
2026-05-09 01:39 -26.76460 -48.92462 35962 ft 467 kts 219°
2026-05-09 01:39 -26.81891 -48.96438 35967 ft 467 kts 219°
2026-05-09 01:40 -26.87339 -49.00430 35947 ft 468 kts 220°
2026-05-09 01:40 -26.92751 -49.04404 35915 ft 467 kts 220°
2026-05-09 01:41 -26.98199 -49.08392 35897 ft 464 kts 220°
2026-05-09 01:41 -27.03577 -49.12331 35893 ft 464 kts 220°
2026-05-09 01:42 -27.08978 -49.16298 35891 ft 463 kts 220°
2026-05-09 01:42 -27.14344 -49.20249 35885 ft 461 kts 220°
2026-05-09 01:43 -27.19730 -49.24219 35899 ft 464 kts 220°
2026-05-09 01:43 -27.25144 -49.28215 35910 ft 466 kts 220°
2026-05-09 01:44 -27.30541 -49.32192 35901 ft 462 kts 220°
2026-05-09 01:44 -27.35917 -49.36164 35900 ft 462 kts 221°
2026-05-09 01:45 -27.41252 -49.40121 35901 ft 462 kts 221°
2026-05-09 01:45 -27.46613 -49.44103 35893 ft 461 kts 221°
2026-05-09 01:46 -27.51961 -49.48079 35899 ft 462 kts 220°
2026-05-09 01:46 -27.57339 -49.52073 35904 ft 463 kts 220°
2026-05-09 01:47 -27.62729 -49.56059 35900 ft 462 kts 220°
2026-05-09 01:47 -27.68061 -49.60021 35898 ft 461 kts 221°
2026-05-09 01:48 -27.73431 -49.64012 35900 ft 463 kts 221°
2026-05-09 01:48 -27.78850 -49.67941 35898 ft 464 kts 219°
2026-05-09 01:49 -27.84314 -49.71818 35902 ft 464 kts 219°
2026-05-09 01:49 -27.89785 -49.75722 35905 ft 465 kts 219°
2026-05-09 01:50 -27.95247 -49.79631 35905 ft 465 kts 219°
2026-05-09 01:50 -28.00691 -49.83533 35898 ft 468 kts 220°
2026-05-09 01:51 -28.06239 -49.87497 35898 ft 473 kts 219°
2026-05-09 01:51 -28.11817 -49.91485 35896 ft 473 kts 220°
2026-05-09 01:52 -28.17376 -49.95474 35887 ft 475 kts 220°
2026-05-09 01:52 -28.22976 -49.99500 35882 ft 476 kts 220°
2026-05-09 01:53 -28.28570 -50.03528 35880 ft 476 kts 220°
2026-05-09 01:53 -28.34188 -50.07579 35877 ft 481 kts 220°
2026-05-09 01:54 -28.39851 -50.11667 35876 ft 487 kts 220°
2026-05-09 01:54 -28.45570 -50.15800 35816 ft 488 kts 220°
2026-05-09 01:55 -28.48437 -50.17862 35371 ft 487 kts 220°
2026-05-09 01:55 -28.51295 -50.19928 34611 ft 487 kts 220°
2026-05-09 01:55 -28.54158 -50.22003 33851 ft 488 kts 220°
2026-05-09 01:55 -28.57027 -50.24086 33070 ft 489 kts 220°
2026-05-09 01:56 -28.59905 -50.26178 32264 ft 491 kts 221°
2026-05-09 01:56 -28.62783 -50.28271 31443 ft 492 kts 221°
2026-05-09 01:56 -28.65620 -50.30336 30622 ft 493 kts 221°
2026-05-09 01:56 -28.68572 -50.32470 29762 ft 492 kts 222°
2026-05-09 01:57 -28.71441 -50.34566 28916 ft 491 kts 223°
2026-05-09 01:57 -28.74276 -50.36723 28041 ft 486 kts 225°
2026-05-09 01:57 -28.76974 -50.39018 27147 ft 483 kts 227°
2026-05-09 01:57 -28.79605 -50.41326 26233 ft 484 kts 227°
2026-05-09 01:58 -28.82287 -50.43650 25335 ft 483 kts 226°
2026-05-09 01:58 -28.84951 -50.45943 24630 ft 477 kts 226°
2026-05-09 01:58 -28.87595 -50.48203 23930 ft 472 kts 226°
2026-05-09 01:58 -28.90213 -50.50425 23231 ft 466 kts 226°
2026-05-09 01:59 -28.92793 -50.52627 22539 ft 460 kts 226°
2026-05-09 01:59 -28.95335 -50.54803 21849 ft 455 kts 226°
2026-05-09 01:59 -28.97861 -50.56969 21165 ft 449 kts 226°
2026-05-09 01:59 -29.00316 -50.59076 20492 ft 444 kts 226°
2026-05-09 02:00 -29.02803 -50.61213 19809 ft 439 kts 226°
2026-05-09 02:00 -29.05198 -50.63271 19148 ft 434 kts 226°
2026-05-09 02:00 -29.07593 -50.65330 18479 ft 429 kts 226°
2026-05-09 02:00 -29.10016 -50.67316 17795 ft 432 kts 221°
2026-05-09 02:01 -29.12756 -50.68818 17318 ft 441 kts 209°
2026-05-09 02:01 -29.15750 -50.69711 16743 ft 451 kts 199°
2026-05-09 02:01 -29.18904 -50.70087 16041 ft 460 kts 191°
2026-05-09 02:01 -29.22104 -50.70119 15476 ft 456 kts 188°
2026-05-09 02:02 -29.25248 -50.70233 14874 ft 449 kts 191°
2026-05-09 02:02 -29.27351 -50.70349 14475 ft 445 kts 191°
2026-05-09 02:02 -29.30389 -50.70516 13901 ft 441 kts 190°
2026-05-09 02:02 -29.33434 -50.70639 13308 ft 436 kts 190°
2026-05-09 02:03 -29.36454 -50.70772 12680 ft 425 kts 190°
2026-05-09 02:03 -29.39362 -50.70902 11650 ft 414 kts 189°
2026-05-09 02:03 -29.42203 -50.71025 10969 ft 400 kts 189°
2026-05-09 02:03 -29.44940 -50.71143 10658 ft 389 kts 189°
2026-05-09 02:04 -29.47615 -50.71257 10465 ft 377 kts 189°
2026-05-09 02:04 -29.50195 -50.71368 10282 ft 362 kts 189°
2026-05-09 02:04 -29.52634 -50.71473 10165 ft 339 kts 189°
2026-05-09 02:04 -29.54911 -50.71572 10064 ft 316 kts 189°
2026-05-09 02:05 -29.57036 -50.71664 9974 ft 295 kts 190°
2026-05-09 02:05 -29.59048 -50.71753 9874 ft 290 kts 190°
2026-05-09 02:05 -29.61084 -50.71841 9604 ft 296 kts 190°
2026-05-09 02:05 -29.63134 -50.71930 9310 ft 299 kts 190°
2026-05-09 02:06 -29.65213 -50.72021 9007 ft 297 kts 190°
2026-05-09 02:06 -29.67272 -50.72111 8704 ft 287 kts 190°
2026-05-09 02:06 -29.69206 -50.72195 8421 ft 276 kts 191°
2026-05-09 02:07 -29.72878 -50.73107 7960 ft 264 kts 219°
2026-05-09 02:07 -29.74365 -50.74332 7621 ft 266 kts 227°
2026-05-09 02:07 -29.75756 -50.75742 7273 ft 265 kts 231°
2026-05-09 02:07 -29.77068 -50.77215 6969 ft 262 kts 233°
2026-05-09 02:08 -29.78350 -50.78692 6674 ft 260 kts 233°
2026-05-09 02:08 -29.79625 -50.80154 6383 ft 257 kts 233°
2026-05-09 02:08 -29.80890 -50.81600 6096 ft 255 kts 232°
2026-05-09 02:08 -29.82146 -50.83032 5813 ft 252 kts 232°
2026-05-09 02:09 -29.83385 -50.84444 5571 ft 248 kts 232°
2026-05-09 02:09 -29.84588 -50.85814 5314 ft 245 kts 232°
2026-05-09 02:09 -29.85793 -50.87186 5049 ft 242 kts 232°
2026-05-09 02:09 -29.86985 -50.88543 4785 ft 239 kts 232°
2026-05-09 02:10 -29.88162 -50.89882 4524 ft 236 kts 232°
2026-05-09 02:10 -29.89321 -50.91202 4264 ft 233 kts 232°
2026-05-09 02:10 -29.90524 -50.92452 4040 ft 235 kts 223°
2026-05-09 02:10 -29.91997 -50.93350 3751 ft 241 kts 211°
2026-05-09 02:11 -29.93517 -50.93999 3593 ft 223 kts 208°
2026-05-09 02:11 -29.94925 -50.94582 3461 ft 208 kts 210°
2026-05-09 02:11 -29.96235 -50.95151 3292 ft 194 kts 211°
2026-05-09 02:11 -29.97495 -50.95708 2846 ft 194 kts 211°
2026-05-09 02:12 -29.98749 -50.96266 2515 ft 195 kts 212°
2026-05-09 02:12 -29.98791 -50.96286 2507 ft 194 kts 212°
2026-05-09 02:12 -29.99235 -50.96552 2414 ft 187 kts 223°
2026-05-09 02:12 -29.99865 -50.97692 2277 ft 164 kts 265°
2026-05-09 02:13 -29.99877 -50.98979 2290 ft 158 kts 275°
2026-05-09 02:13 -29.99816 -51.00232 2287 ft 156 kts 275°
2026-05-09 02:13 -29.99777 -51.01482 2294 ft 155 kts 274°
2026-05-09 02:13 -29.99747 -51.02738 2232 ft 159 kts 274°
2026-05-09 02:14 -29.99719 -51.04046 2021 ft 167 kts 273°
2026-05-09 02:14 -29.99692 -51.05391 1826 ft 163 kts 273°
2026-05-09 02:14 -29.99666 -51.06651 1580 ft 151 kts 273°
2026-05-09 02:14 -29.99643 -51.07837 1368 ft 145 kts 272°
2026-05-09 02:15 -29.99621 -51.08963 1165 ft 140 kts 272°
2026-05-09 02:15 -29.99599 -51.10077 976 ft 139 kts 271°
2026-05-09 02:15 -29.99578 -51.11221 767 ft 145 kts 272°
2026-05-09 02:15 -29.99557 -51.12406 539 ft 149 kts 272°
2026-05-09 02:16 -29.99533 -51.13603 332 ft 150 kts 272°
2026-05-09 02:16 -29.99507 -51.14801 155 ft 148 kts 272°
2026-05-09 02:16 -29.99484 -51.15959 22 ft 142 kts 273°
2026-05-09 02:16 -29.99465 -51.16898 19 ft 78 kts 271°
2026-05-09 02:17 -29.99453 -51.17341 19 ft 46 kts 272°
2026-05-09 02:17 -29.99450 -51.17599 19 ft 23 kts 271°
2026-05-09 02:17 -29.99384 -51.17700 19 ft 15 kts
2026-05-09 02:17 -29.99283 -51.17700 19 ft 14 kts
2026-05-09 02:18 -29.99192 -51.17693 19 ft 10 kts 28°
2026-05-09 02:18 -29.99163 -51.17635 19 ft 5 kts 24°
2026-05-09 02:18 -29.99132 -51.17630 19 ft 4 kts
2026-05-09 02:18 -29.99103 -51.17628 19 ft 1 kts
2026-05-09 02:19 -29.99102 -51.17628 19 ft 0 kts